#timestamp,LO_Frequency,Hit,StdDev 
1552759215.9,286046999.5,N
1552759235.7,286046999.4,N
1552759255.5,286046996.5,N
1552759275.4,286046998.5,N
1552759295.2,286046999.3,N
1552759315.0,286046998.9,N
1552759315.9,286046998.9,N
1552759335.8,286046998.2,N
1552759355.6,286046998.2,N
1552759375.5,286047001.0,N
1552759395.3,286047000.2,N
1552759415.1,286046998.7,N
1552759435.9,286046998.8,N
1552759455.7,286047000.9,N
1552759475.5,286047000.1,N
1552759495.4,286047001.2,N
1552759515.2,286047001.1,N
1552759535.1,286047000.8,N
1552759536.0,286047000.8,N
1552759555.8,286047000.0,N
1552759575.6,286047002.5,N
1552759595.5,286046999.7,N
1552759615.3,286047000.5,N
1552759635.1,286047000.1,N
1552759655.9,286047001.0,N
1552759675.7,286047001.1,N
1552759695.6,286047000.7,N
1552759715.4,286047001.1,N
1552759735.2,286046999.4,N
1552759755.1,286046999.4,N
1552759756.0,286046999.4,N
1552759775.8,286046999.3,N
1552759795.6,286046996.5,N
1552759815.5,286046999.2,N
1552759835.3,286046999.0,N
1552759855.1,286046998.9,N
1552759875.9,286046998.8,N
1552759895.7,286046998.8,N
1552759915.6,286046998.9,N
1552759935.4,286047000.6,N
1552759955.2,286047000.1,N
1552759975.1,286047000.6,N
1552759976.0,286047000.6,N
1552759995.8,286046999.9,N
1552760015.6,286046999.9,N
1552760035.5,286047001.1,N
1552760055.3,286046998.4,N
1552760075.2,286046998.1,N
1552760095.9,286046999.0,N
1552760115.7,286046998.8,N
1552760135.6,286046999.4,N
1552760155.4,286046997.3,N
1552760175.2,286046997.1,N
1552760195.1,286046996.8,N
1552760196.0,286046996.8,N
1552760215.8,286046999.1,N
1552760235.7,286047000.9,N
1552760255.5,286047000.9,N
1552760275.3,286047000.3,N
1552760295.2,286047001.1,N
1552760315.0,286046998.5,N
1552760315.9,286046998.5,N
1552760335.8,286047000.3,N
1552760355.6,286047002.3,N
1552760375.4,286047004.2,Y
1552760395.3,286047003.1,P
1552760415.1,286047004.4,N
1552760435.8,286047004.3,N
1552760455.7,286047004.4,N
1552760475.5,286047001.7,N
1552760495.3,286047001.6,N
1552760515.2,286047002.2,N
1552760535.0,286047004.4,N
1552760535.9,286047004.4,N
1552760555.8,286047001.7,N
1552760575.6,286047001.8,N
1552760595.4,286047004.0,N
1552760615.3,286047004.4,N
1552760635.1,286047004.0,N
1552760655.8,286047003.7,N
1552760675.7,286047003.8,N
1552760695.5,286047003.0,N
1552760715.4,286047003.5,N
1552760735.2,286047004.0,N
1552760755.0,286047001.9,N
1552760755.9,286047001.9,N
1552760775.8,286047002.4,N
1552760795.6,286047001.8,N
1552760815.4,286047003.7,N
1552760835.3,286047004.0,Y
1552760855.1,286047001.0,P
1552760875.9,286047001.0,N
1552760895.7,286046998.9,N
1552760915.5,286046997.9,N
1552760935.4,286046995.2,N
1552760955.2,286046995.5,N
1552760975.1,286046997.4,N
1552760976.0,286046997.4,N
1552760995.8,286046995.5,N
1552761015.6,286046997.7,N
1552761035.5,286047000.0,N
1552761055.3,286047000.0,N
1552761075.1,286047000.5,N
1552761095.9,286047001.8,N
1552761115.7,286047004.4,N
1552761135.6,286047005.6,N
1552761155.4,286047003.2,N
1552761175.2,286047004.4,N
1552761195.1,286047004.4,N
1552761196.0,286047004.4,N
1552761215.8,286047002.5,N
1552761235.6,286047000.0,N
1552761255.5,286047001.5,N
1552761275.3,286047001.6,N
1552761295.2,286047003.8,N
1552761315.9,286047011.9,Y
1552761335.7,286047001.9,P
1552761355.6,286047003.8,P
1552761375.4,286047003.8,N
1552761395.2,286047002.5,N
1552761415.1,286047002.3,N
1552761416.0,286047002.3,N
1552761435.8,286047004.3,Y
1552761455.7,286047003.0,P
1552761475.5,286047006.0,P
1552761495.3,286047003.3,N
1552761515.2,286047004.8,Y
1552761535.0,286047002.5,P
1552761535.9,286047002.5,P
1552761555.8,286047000.9,N
1552761575.6,286046999.4,N
1552761595.4,286046999.3,N
1552761615.3,286046997.4,N
1552761635.1,286046995.3,N
1552761655.9,286046995.1,N
1552761675.7,286046995.5,N
1552761695.5,286046996.3,N
1552761715.4,286046995.3,N
1552761735.2,286046996.5,N
1552761755.0,286046995.6,N
1552761755.9,286046995.6,N
1552761775.8,286046993.7,N
1552761795.6,286046996.2,N
1552761815.4,286046994.0,N
1552761835.3,286046996.3,N
1552761855.1,286046993.5,N
1552761875.9,286046993.9,N
1552761895.7,286046993.1,N
1552761915.5,286046990.7,Y
1552761935.4,286046994.6,P
1552761955.2,286046993.2,P
1552761975.0,286046991.1,P
1552761976.0,286046991.1,Y
1552761995.8,286046996.2,P
1552762015.6,286046997.5,N
1552762035.5,286046997.7,N
1552762055.3,286046995.1,Y
1552762075.1,286047004.3,P
1552762095.9,286047003.8,N
1552762115.7,286047005.3,N
1552762135.6,286047009.2,N
1552762155.4,286047007.1,N
1552762175.2,286047005.5,N
1552762195.1,286047006.0,N
1552762196.0,286047006.0,N
1552762215.8,286047005.1,N
1552762235.6,286047006.3,N
1552762255.5,286047008.9,N
1552762275.3,286047008.5,N
1552762295.2,286047007.0,N
1552762315.9,286047006.0,N
1552762335.7,286047001.6,N
1552762355.6,286047000.4,N
1552762375.4,286046996.7,N
1552762395.3,286046997.6,N
1552762415.1,286046995.4,N
1552762416.0,286046995.4,N
1552762435.8,286046996.8,N
1552762455.7,286046996.7,N
1552762475.5,286046998.1,N
1552762495.3,286046998.5,N
1552762515.2,286047002.0,N
1552762535.0,286047001.7,N
1552762535.9,286047001.7,N
1552762555.8,286047002.2,N
1552762575.6,286047001.3,N
1552762595.4,286047002.8,N
1552762615.3,286046999.8,N
1552762635.1,286046998.5,N
1552762655.8,286046999.3,N
1552762675.7,286046997.0,N
1552762695.5,286046995.3,N
1552762715.4,286046996.2,N
1552762735.2,286046995.9,N
1552762755.0,286046995.5,N
1552762755.9,286046995.5,N
1552762775.8,286046996.3,N
1552762795.6,286046993.3,N
